TimeAKDT,TemperatureF,Dew PointF,Humidity,Sea Level PressureIn,VisibilityMPH,Wind Direction,Wind SpeedMPH,Gust SpeedMPH,PrecipitationIn,Events,Conditions,WindDirDegrees,DateUTC
12:53 AM,50.0,48.0,93,29.79,10.0,South,9.2,16.1,N/A,,Overcast,190,2013-10-31 08:53:00
1:18 AM,50.0,48.2,94,29.79,9.0,South,3.5,-,0.00,Rain,Light Rain,190,2013-10-31 09:18:00
1:37 AM,48.2,48.2,100,29.80,6.0,South,4.6,-,0.03,Rain,Light Rain,190,2013-10-31 09:37:00
1:53 AM,48.9,48.0,97,29.81,10.0,South,4.6,-,0.05,Rain,Light Rain,180,2013-10-31 09:53:00
2:17 AM,48.2,48.2,100,29.80,9.0,South,4.6,-,0.01,Rain,Light Rain,170,2013-10-31 10:17:00
2:53 AM,48.0,48.0,100,29.81,10.0,SE,3.5,-,0.06,Rain,Light Rain,130,2013-10-31 10:53:00
3:06 AM,48.2,48.2,100,29.81,10.0,Calm,Calm,-,0.00,Rain,Light Rain,0,2013-10-31 11:06:00
3:41 AM,48.2,48.2,100,29.82,9.0,SSE,3.5,-,0.05,Rain,Light Rain,150,2013-10-31 11:41:00
3:53 AM,48.9,48.9,100,29.82,10.0,Calm,Calm,-,0.05,Rain,Light Rain,0,2013-10-31 11:53:00
4:25 AM,50.0,48.2,94,29.82,8.0,South,6.9,-,0.00,Rain,Light Rain,180,2013-10-31 12:25:00
4:33 AM,50.0,48.2,94,29.82,5.0,South,6.9,-,0.00,Rain,Light Rain,180,2013-10-31 12:33:00
4:53 AM,48.9,48.0,97,29.83,10.0,SSW,5.8,-,0.01,,Overcast,210,2013-10-31 12:53:00
5:53 AM,48.0,46.9,96,29.86,10.0,Calm,Calm,-,N/A,,Partly Cloudy,0,2013-10-31 13:53:00
6:53 AM,46.9,46.0,97,29.87,10.0,Calm,Calm,-,N/A,,Scattered Clouds,0,2013-10-31 14:53:00
7:53 AM,46.9,46.0,97,29.89,10.0,Calm,Calm,-,0.00,,Overcast,0,2013-10-31 15:53:00
8:53 AM,46.9,46.0,97,29.91,10.0,Calm,Calm,-,0.00,,Mostly Cloudy,0,2013-10-31 16:53:00
9:53 AM,48.0,46.9,96,29.91,10.0,SSE,3.5,-,N/A,,Scattered Clouds,150,2013-10-31 17:53:00
10:53 AM,50.0,46.9,89,29.93,10.0,SSW,5.8,-,N/A,,Overcast,210,2013-10-31 18:53:00
12:53 PM,51.1,46.9,86,29.95,10.0,South,3.5,-,N/A,,Mostly Cloudy,190,2013-10-31 20:53:00
1:53 PM,48.9,45.0,86,29.97,10.0,Variable,5.8,-,0.00,Rain,Light Rain,0,2013-10-31 21:53:00
2:53 PM,51.1,45.0,80,29.97,10.0,Calm,Calm,-,0.00,,Scattered Clouds,0,2013-10-31 22:53:00
3:53 PM,50.0,43.0,77,29.97,10.0,SW,5.8,-,N/A,,Partly Cloudy,230,2013-10-31 23:53:00
4:53 PM,48.0,43.0,83,29.99,10.0,Variable,3.5,-,N/A,,Overcast,0,2013-11-01 00:53:00
5:53 PM,48.0,43.0,83,30.00,10.0,SW,4.6,-,N/A,,Overcast,230,2013-11-01 01:53:00
6:53 PM,46.9,43.0,86,30.01,10.0,Calm,Calm,-,0.00,,Overcast,0,2013-11-01 02:53:00
8:53 PM,42.1,41.0,96,30.02,10.0,Calm,Calm,-,N/A,,Scattered Clouds,0,2013-11-01 04:53:00
9:53 PM,42.1,41.0,96,30.03,10.0,Calm,Calm,-,N/A,,Overcast,0,2013-11-01 05:53:00
10:53 PM,43.0,42.1,97,30.04,10.0,Calm,Calm,-,N/A,,Overcast,0,2013-11-01 06:53:00
11:21 PM,43.0,41.0,93,30.06,5.0,SW,4.6,-,0.03,Rain,Rain,220,2013-11-01 07:21:00
11:35 PM,43.0,41.0,93,30.07,9.0,West,5.8,-,0.05,Rain,Light Rain,270,2013-11-01 07:35:00
11:53 PM,43.0,41.0,93,30.07,10.0,Calm,Calm,-,0.05,,Overcast,0,2013-11-01 07:53:00